Retour au catalogue

ERS 6

ActifSciencePO
NORAD 608·PAYLOAD·🇺🇸 United States

Lancé May 9, 1963 depuis Vandenberg Space Force Base

Loading…

Prochains Passages (prochaines 24 heures)

TLE

FraisSource: Space-Track

Époque: Sep 14, 2026, 05:49 UTC

1 00608U 63014C   26257.24262523 -.00000003  00000-0 -29051-2 0  9990
2 00608  87.3632 184.9887 0011838 264.0759  95.8746  8.65282487  1172

Suivez ERS 6 en temps réel avec AllMySat

Download on the App Store